Location: The Jewett Observatory
(46.7288°N, 117.1525°W)
Time: 23:50:25
(UTC-07:00)

Cosmos 1633 - Visible Passes

Search period start: 28 August 2015 00:00
Search period end: 07 September 2015 00:00
Orbit: 482 x 502 km, 82.5° (Epoch: 29 August)

Date Brightness Start Highest point End Pass type
(mag) Time Alt. Az. Time Alt. Az. Time Alt. Az.
29 Aug 6.2 21:11:58 10° W 21:13:20 11° WNW 21:14:31 10° NW visible
30 Aug 6.5 05:24:41 10° NE 05:26:11 12° ENE 05:27:51 10° E visible
30 Aug 5.9 20:48:16 10° WSW 20:50:41 16° WNW 20:53:00 10° NNW visible
31 Aug 5.5 20:25:05 10° SW 20:28:05 23° WNW 20:31:02 10° NNW visible
01 Sep 4.8 20:02:09 10° SW 20:05:30 32° WNW 20:08:52 10° N visible
03 Sep 5.1 05:28:38 10° NNE 05:31:55 29° ENE 05:35:14 10° SE visible
04 Sep 5.7 05:06:29 10° NNE 05:09:19 20° ENE 05:12:13 10° ESE visible
05 Sep 6.1 04:44:33 10° NNE 04:46:40 15° ENE 04:48:54 10° ESE visible
05 Sep 6.3 20:09:06 10° W 20:11:06 14° WNW 20:12:59 10° NW visible
06 Sep 6.5 04:23:25 10° NE 04:23:58 10° ENE 04:24:42 10° ENE visible
06 Sep 5.9 19:45:41 10° WSW 19:48:26 19° WNW 19:51:08 10° NNW visible
